カタログに戻る

STARLINK-11127

運用中通信VLEO
NORAD 60119·PAYLOAD·🇺🇸 United States

打ち上げ Jun 24, 2024 から Vandenberg Space Force Base

Loading…

次のパス (今後24時間)

TLE

最新Source: CelesTrak SupGP

元期: Sep 15, 2026, 03:04 UTC

1 60119C 24118G   26258.12826389 -.00043092  00000+0 -35491-3 0  2587
2 60119  53.1572   7.3699 0001009  65.3170  61.2783 15.69734754    17

AllMySatでSTARLINK-11127をリアルタイム追跡

Download on the App Store